SCP
0 0 0 0 0 0 0 0 0 0 0 0 0 0 -0 -0 -0 -0 -0 -0 -0 -0 -0 -0 -0 -0 -0 -0 -0 -0 -0 -0
0 0 0 0 0 0 0 0 0 0 0 0 0 0 0 -0 -0 -0 -0 -0 -0 -0 -0 -0 -0 -0 -0 -0 -0 -0 -0 -0
0 0 0 0 0 0 0 0 0 0 0 1 1 1 0 -0 -0 -0 -0 -0 -0 -0 -0 -0 -0 -0 0 -0 -0 -0 -0 -0
0 0 0 0 0 0 0 0 0 0 0 1 1 0 0 0 0 0 0 -0 0 0 0 0 0 0 0 0 -0 0 0 0
0 0 0 0 0 0 0 0 0 0 0 1 1 1 0 0 0 0 0 0 0 0 0 0 0 0 0 0 0 0 0 0
0 0 0 0 0 0 0 0 0 0 0 0 1 1 0 0 0 0 0 0 0 0 0 0 0 0 0 0 0 0 0 0
0 0 0 0 0 0 0 0 0 0 0 0 1 1 0 0 0 0 0 0 0 0 0 0 0 0 0 0 0 0 0 0
0 0 0 0 0 0 0 0 0 0 1 1 0 1 1 0 0 0 0 0 0 0 0 0 0 0 0 0 0 0 0 0
0 0 0 0 0 0 0 0 0 0 0 1 1 0 0 0 0 0 0 0 0 0 0 0 0 0 0 0 0 0 0 0
0 0 0 0 0 0 0 0 0 0 0 1 0 0 0 0 1 0 0 0 0 0 0 0 0 0 0 0 0 0 0 1
0 0 0 0 0 0 0 0 0 0 0 0 1 1 1 1 1 1 0 0 0 0 1 1 1 1 0 1 0 0 1 1
0 0 0 0 0 0 0 0 0 0 0 0 0 0 0 0 0 0 0 0 0 1 1 1 1 1 1 1 1 0 1 1
0 0 0 0 0 0 0 0 0 0 0 0 0 0 0 0 0 0 0 0 1 1 1 1 2 2 1 1 1 1 1 1
-0 -0 0 0 0 0 0 0 0 0 0 0 0 0 0 0 0 0 0 0 1 1 1 2 2 2 2 1 1 1 1 1
-0 -0 -0 0 0 0 0 0 0 0 0 0 0 0 0 0 0 0 0 0 0 1 1 1 1 1 1 1 1 1 1 1
-0 -0 -0 -0 -0 0 0 0 0 0 0 0 0 0 0 0 0 0 0 0 0 0 1 1 1 1 1 1 1 1 1 2
0 0 0 0 0 0 0 0 0 0 0 0 0 0 0 0 0 0 0 0 0 0 1 1 1 2 1 1 1 1 1 1
0 0 0 -0 0 0 0 0 0 0 0 0 0 0 0 0 0 0 0 0 0 0 1 1 1 1 1 1 1 1 1 1
0 0 0 0 0 0 0 0 0 0 0 0 0 0 0 0 0 0 0 0 0 0 0 1 1 2 1 1 2 2 2 2
0 0 0 0 0 0 0 0 0 0 0 0 0 0 0 0 0 0 0 0 0 0 0 1 1 2 2 1 1 2 3 4
Wind_Speed_500mb
10 22 25 16 19 10 0 5 4 5 2 5 9 8 25 20 35 40 37 38 39 37 35 33 32 32 34 33 33 31 27 23
19 29 29 15 16 4 5 7 1 5 8 11 13 15 14 30 39 39 36 36 37 36 34 31 30 30 32 32 31 28 24 21
27 36 10 16 9 8 9 6 6 11 13 10 11 18 25 29 38 39 36 34 37 35 33 30 29 27 29 30 28 25 21 21
29 33 22 13 15 16 15 9 7 14 11 17 16 20 29 29 35 36 35 34 37 36 34 31 29 28 27 26 24 22 21 24
28 22 22 17 9 18 10 9 9 6 17 16 20 22 29 29 33 37 34 33 34 36 36 32 31 29 25 23 22 23 23 26
19 24 25 9 13 6 11 3 8 7 13 27 26 26 28 27 32 35 33 31 32 36 37 35 33 32 27 22 21 24 25 27
27 22 13 10 11 2 13 13 4 3 3 10 25 30 30 30 32 33 32 32 31 32 34 33 32 34 31 28 25 26 28 29
6 15 12 5 12 16 14 9 8 10 2 13 24 31 29 31 33 34 33 33 32 33 34 34 31 33 38 36 33 32 33 33
20 29 39 32 14 13 22 17 7 9 5 11 21 29 29 27 26 29 29 31 33 36 37 36 33 32 33 33 34 37 38 38
25 34 39 27 15 26 26 33 10 10 8 9 22 29 29 27 26 27 29 32 34 36 42 43 35 36 35 36 36 35 38 43
16 36 46 50 49 40 41 35 28 23 12 14 19 24 27 25 23 25 30 32 34 36 39 44 51 40 39 38 37 34 35 39
24 38 49 57 42 42 41 26 31 26 20 19 19 23 23 26 27 28 30 33 33 38 41 45 49 51 39 39 37 37 35 34
31 38 28 59 54 48 52 40 38 32 26 20 24 23 24 23 23 24 27 28 35 39 41 47 54 54 50 41 40 38 36 37
38 37 45 36 49 43 45 34 34 33 28 20 21 25 27 26 26 28 31 33 33 34 38 46 52 54 50 43 40 39 36 32
25 54 43 44 50 49 32 29 31 24 27 24 22 24 29 36 38 37 41 42 43 41 39 39 43 48 46 42 41 36 36 34
36 40 48 39 45 37 25 25 27 29 26 19 18 28 36 36 38 41 45 47 49 50 45 42 36 41 41 41 43 40 38 36
29 22 42 39 39 34 26 23 21 21 10 8 11 13 13 21 26 34 42 49 53 55 51 48 42 35 37 42 41 42 39 39
26 23 27 35 31 32 18 24 14 7 6 2 8 9 9 7 6 19 28 34 46 58 54 55 41 37 31 32 35 36 35 36
16 17 23 14 29 28 25 17 16 11 5 6 11 15 16 15 8 10 12 15 21 37 49 48 45 38 38 31 33 34 33 31
20 16 22 27 20 27 31 24 16 8 7 11 14 17 19 19 15 9 12 17 21 31 40 46 52 38 41 31 31 31 31 31
Wind_Direction_500mb
232 240 246 239 177 140 232 343 4 221 229 36 60 70 132 144 150 154 159 169 176 176 176 175 176 174 176 178 180 182 185 191
238 237 235 310 138 171 226 160 290 204 178 106 98 123 139 150 152 158 158 166 174 176 178 179 179 179 183 184 184 186 192 199
225 237 232 239 253 280 245 225 229 200 137 107 118 122 140 149 157 159 162 167 176 177 181 182 183 185 188 187 189 193 199 195
224 221 229 240 245 264 246 236 192 202 187 129 146 132 148 153 158 164 165 168 179 180 184 184 186 188 190 193 199 201 198 187
230 243 222 232 234 231 276 235 159 310 201 121 156 157 154 156 161 167 167 168 182 186 187 188 189 191 194 201 208 205 195 187
213 219 225 154 228 239 274 102 285 193 213 169 165 154 156 159 163 167 169 175 178 187 192 194 194 196 199 203 206 203 199 197
205 215 212 169 240 250 301 267 257 178 16 80 158 156 156 158 164 169 173 181 180 184 190 191 197 204 203 207 208 207 206 206
300 313 267 142 277 318 295 255 163 175 100 131 158 165 167 168 171 176 180 184 188 188 193 192 197 205 210 214 214 213 212 215
285 292 283 271 268 288 292 248 81 62 98 177 174 178 179 178 177 182 188 188 192 198 202 199 202 205 206 210 211 216 218 220
278 290 307 268 279 278 280 281 288 310 335 192 193 193 191 189 185 189 198 199 200 208 216 214 207 213 212 211 214 215 219 225
297 282 285 282 279 278 277 273 273 277 276 220 203 205 206 204 209 208 211 210 209 214 225 226 222 217 214 217 221 219 220 227
277 284 287 286 278 274 263 261 260 245 251 227 215 207 200 205 211 217 221 221 218 230 236 235 235 226 221 219 220 221 223 224
226 270 268 290 275 266 259 259 260 235 235 239 226 217 215 219 223 227 230 224 223 229 237 242 238 236 230 226 225 226 228 226
212 211 261 264 272 270 246 246 238 231 224 223 230 236 238 241 240 240 233 230 224 225 231 246 245 243 234 229 227 225 227 227
196 192 216 222 251 265 241 233 240 232 225 227 238 238 245 245 242 243 245 237 237 237 239 244 244 237 234 228 226 225 226 225
212 185 203 220 245 252 221 235 227 230 240 247 261 262 256 244 239 238 240 239 240 240 242 242 238 236 229 227 229 225 225 226
209 175 195 219 216 235 218 219 214 214 220 281 320 317 283 249 247 241 237 236 241 238 237 240 244 228 224 228 225 224 224 227
191 183 219 200 226 237 207 217 225 196 186 26 335 351 350 331 265 240 237 237 244 236 231 236 238 233 229 233 225 221 219 221
201 190 223 249 238 220 227 212 169 138 100 45 6 1 2 7 343 265 254 235 232 229 230 236 231 238 234 229 212 215 213 220
221 206 232 197 250 200 212 205 185 146 64 38 26 21 24 22 14 337 272 253 243 236 236 238 241 226 230 220 226 222 211 211
Wind_Speed_850mb
10 22 25 16 19 10 0 5 4 5 2 5 9 8 25 20 35 40 37 38 39 37 35 33 32 32 34 33 33 31 27 23
19 29 29 15 16 4 5 7 1 5 8 11 13 15 14 30 39 39 36 36 37 36 34 31 30 30 32 32 31 28 24 21
27 36 10 16 9 8 9 6 6 11 13 10 11 18 25 29 38 39 36 34 37 35 33 30 29 27 29 30 28 25 21 21
29 33 22 13 15 16 15 9 7 14 11 17 16 20 29 29 35 36 35 34 37 36 34 31 29 28 27 26 24 22 21 24
28 22 22 17 9 18 10 9 9 6 17 16 20 22 29 29 33 37 34 33 34 36 36 32 31 29 25 23 22 23 23 26
19 24 25 9 13 6 11 3 8 7 13 27 26 26 28 27 32 35 33 31 32 36 37 35 33 32 27 22 21 24 25 27
27 22 13 10 11 2 13 13 4 3 3 10 25 30 30 30 32 33 32 32 31 32 34 33 32 34 31 28 25 26 28 29
6 15 12 5 12 16 14 9 8 10 2 13 24 31 29 31 33 34 33 33 32 33 34 34 31 33 38 36 33 32 33 33
20 29 39 32 14 13 22 17 7 9 5 11 21 29 29 27 26 29 29 31 33 36 37 36 33 32 33 33 34 37 38 38
25 34 39 27 15 26 26 33 10 10 8 9 22 29 29 27 26 27 29 32 34 36 42 43 35 36 35 36 36 35 38 43
16 36 46 50 49 40 41 35 28 23 12 14 19 24 27 25 23 25 30 32 34 36 39 44 51 40 39 38 37 34 35 39
24 38 49 57 42 42 41 26 31 26 20 19 19 23 23 26 27 28 30 33 33 38 41 45 49 51 39 39 37 37 35 34
31 38 28 59 54 48 52 40 38 32 26 20 24 23 24 23 23 24 27 28 35 39 41 47 54 54 50 41 40 38 36 37
38 37 45 36 49 43 45 34 34 33 28 20 21 25 27 26 26 28 31 33 33 34 38 46 52 54 50 43 40 39 36 32
25 54 43 44 50 49 32 29 31 24 27 24 22 24 29 36 38 37 41 42 43 41 39 39 43 48 46 42 41 36 36 34
36 40 48 39 45 37 25 25 27 29 26 19 18 28 36 36 38 41 45 47 49 50 45 42 36 41 41 41 43 40 38 36
29 22 42 39 39 34 26 23 21 21 10 8 11 13 13 21 26 34 42 49 53 55 51 48 42 35 37 42 41 42 39 39
26 23 27 35 31 32 18 24 14 7 6 2 8 9 9 7 6 19 28 34 46 58 54 55 41 37 31 32 35 36 35 36
16 17 23 14 29 28 25 17 16 11 5 6 11 15 16 15 8 10 12 15 21 37 49 48 45 38 38 31 33 34 33 31
20 16 22 27 20 27 31 24 16 8 7 11 14 17 19 19 15 9 12 17 21 31 40 46 52 38 41 31 31 31 31 31
Wind_Direction_850mb
232 240 246 239 177 140 232 343 4 221 229 36 60 70 132 144 150 154 159 169 176 176 176 175 176 174 176 178 180 182 185 191
238 237 235 310 138 171 226 160 290 204 178 106 98 123 139 150 152 158 158 166 174 176 178 179 179 179 183 184 184 186 192 199
225 237 232 239 253 280 245 225 229 200 137 107 118 122 140 149 157 159 162 167 176 177 181 182 183 185 188 187 189 193 199 195
224 221 229 240 245 264 246 236 192 202 187 129 146 132 148 153 158 164 165 168 179 180 184 184 186 188 190 193 199 201 198 187
230 243 222 232 234 231 276 235 159 310 201 121 156 157 154 156 161 167 167 168 182 186 187 188 189 191 194 201 208 205 195 187
213 219 225 154 228 239 274 102 285 193 213 169 165 154 156 159 163 167 169 175 178 187 192 194 194 196 199 203 206 203 199 197
205 215 212 169 240 250 301 267 257 178 16 80 158 156 156 158 164 169 173 181 180 184 190 191 197 204 203 207 208 207 206 206
300 313 267 142 277 318 295 255 163 175 100 131 158 165 167 168 171 176 180 184 188 188 193 192 197 205 210 214 214 213 212 215
285 292 283 271 268 288 292 248 81 62 98 177 174 178 179 178 177 182 188 188 192 198 202 199 202 205 206 210 211 216 218 220
278 290 307 268 279 278 280 281 288 310 335 192 193 193 191 189 185 189 198 199 200 208 216 214 207 213 212 211 214 215 219 225
297 282 285 282 279 278 277 273 273 277 276 220 203 205 206 204 209 208 211 210 209 214 225 226 222 217 214 217 221 219 220 227
277 284 287 286 278 274 263 261 260 245 251 227 215 207 200 205 211 217 221 221 218 230 236 235 235 226 221 219 220 221 223 224
226 270 268 290 275 266 259 259 260 235 235 239 226 217 215 219 223 227 230 224 223 229 237 242 238 236 230 226 225 226 228 226
212 211 261 264 272 270 246 246 238 231 224 223 230 236 238 241 240 240 233 230 224 225 231 246 245 243 234 229 227 225 227 227
196 192 216 222 251 265 241 233 240 232 225 227 238 238 245 245 242 243 245 237 237 237 239 244 244 237 234 228 226 225 226 225
212 185 203 220 245 252 221 235 227 230 240 247 261 262 256 244 239 238 240 239 240 240 242 242 238 236 229 227 229 225 225 226
209 175 195 219 216 235 218 219 214 214 220 281 320 317 283 249 247 241 237 236 241 238 237 240 244 228 224 228 225 224 224 227
191 183 219 200 226 237 207 217 225 196 186 26 335 351 350 331 265 240 237 237 244 236 231 236 238 233 229 233 225 221 219 221
201 190 223 249 238 220 227 212 169 138 100 45 6 1 2 7 343 265 254 235 232 229 230 236 231 238 234 229 212 215 213 220
221 206 232 197 250 200 212 205 185 146 64 38 26 21 24 22 14 337 272 253 243 236 236 238 241 226 230 220 226 222 211 211